• In Romania
  • List of Countries
  • For 7 days
  • Water Temperature
  • Satellite Maps
  • Weather Map
  • Weather Widgets
  • user-avatar
    Login

    Hourly Weather Malaya Popiha

    Today, 17 July, Tuesday

    Time Temperature Precipitation Wind Pressure Humidity
    00:00 +19°C° 0 mm 2 mps 741 mmHg 85%
    01:00 +18°C° 0 mm 2 mps 741 mmHg 86%
    02:00 +18°C° 0 mm 2 mps 741 mmHg 88%
    03:00 +18°C° 0 mm 3 mps 741 mmHg 85%
    04:00 +19°C° 0 mm 3 mps 741 mmHg 82%
    05:00 +19°C° 0 mm 3 mps 741 mmHg 79%
    06:00 +21°C° 0 mm 4 mps 741 mmHg 72%
    07:00 +22°C° 0 mm 4 mps 741 mmHg 65%
    08:00 +25°C° 0 mm 5 mps 741 mmHg 58%
    09:00 +26°C° 0 mm 5 mps 741 mmHg 54%
    10:00 +27°C° 0 mm 5 mps 741 mmHg 50%
    11:00 +28°C° 0 mm 5 mps 741 mmHg 47%
    12:00 +28°C° 0 mm 6 mps 741 mmHg 46%
    13:00 +29°C° 0 mm 6 mps 740 mmHg 44%
    14:00 +29°C° 0 mm 6 mps 740 mmHg 43%
    15:00 +29°C° 0 mm 5 mps 740 mmHg 45%
    16:00 +28°C° 0 mm 5 mps 740 mmHg 46%
    17:00 +28°C° 0 mm 5 mps 740 mmHg 48%
    18:00 +27°C° 0 mm 4 mps 739 mmHg 53%
    19:00 +25°C° 0 mm 4 mps 739 mmHg 58%
    20:00 +22°C° 0 mm 3 mps 739 mmHg 63%
    21:00 +22°C° 0 mm 3 mps 739 mmHg 65%
    22:00 +21°C° 0 mm 4 mps 739 mmHg 67%
    23:00 +21°C° 0 mm 4 mps 739 mmHg 68%

    Tomorrow, 18 July, Wednesday

    Time Temperature Precipitation Wind Pressure Humidity
    00:00 +20°C° 0 mm 4 mps 739 mmHg 70%
    01:00 +20°C° 0 mm 4 mps 739 mmHg 72%
    02:00 +20°C° 0 mm 4 mps 739 mmHg 74%
    03:00 +20°C° 0.2 mm 4 mps 739 mmHg 76%
    04:00 +19°C° 0.2 mm 4 mps 739 mmHg 77%
    05:00 +19°C° 0.2 mm 5 mps 739 mmHg 79%
    06:00 +20°C° 0.1 mm 5 mps 739 mmHg 75%
    07:00 +21°C° 0.1 mm 5 mps 739 mmHg 70%
    08:00 +22°C° 0.1 mm 5 mps 738 mmHg 66%
    09:00 +25°C° 0 mm 5 mps 738 mmHg 62%
    10:00 +26°C° 0 mm 6 mps 738 mmHg 58%
    11:00 +27°C° 0 mm 6 mps 738 mmHg 55%
    12:00 +27°C° 0.5 mm 6 mps 738 mmHg 58%
    13:00 +27°C° 0.5 mm 5 mps 738 mmHg 61%
    14:00 +27°C° 0.5 mm 5 mps 738 mmHg 64%
    15:00 +26°C° 0.5 mm 5 mps 738 mmHg 69%
    16:00 +25°C° 0.5 mm 5 mps 738 mmHg 73%
    17:00 +25°C° 0.5 mm 5 mps 738 mmHg 77%
    18:00 +23°C° 0.1 mm 4 mps 738 mmHg 78%
    19:00 +22°C° 0.1 mm 4 mps 738 mmHg 79%
    20:00 +20°C° 0.1 mm 4 mps 738 mmHg 80%
    21:00 +20°C° 0 mm 4 mps 738 mmHg 82%
    22:00 +20°C° 0 mm 4 mps 738 mmHg 83%
    23:00 +19°C° 0 mm 4 mps 738 mmHg 84%

    Day after tomorrow, 19 July, Thursday

    Time Temperature Precipitation Wind Pressure Humidity
    00:00 +19°C° 0 mm 4 mps 738 mmHg 84%
    01:00 +19°C° 0 mm 4 mps 738 mmHg 84%
    02:00 +19°C° 0 mm 4 mps 738 mmHg 83%
    03:00 +19°C° 0 mm 4 mps 738 mmHg 83%
    04:00 +19°C° 0 mm 4 mps 738 mmHg 82%
    05:00 +19°C° 0 mm 4 mps 738 mmHg 82%
    06:00 +20°C° 0 mm 4 mps 738 mmHg 79%
    07:00 +21°C° 0 mm 5 mps 738 mmHg 76%
    08:00 +22°C° 0 mm 5 mps 738 mmHg 73%
    09:00 +22°C° 0 mm 5 mps 738 mmHg 73%
    10:00 +22°C° 0 mm 5 mps 738 mmHg 73%
    11:00 +22°C° 0 mm 5 mps 738 mmHg 74%
    12:00 +23°C° 0.1 mm 5 mps 738 mmHg 73%
    13:00 +23°C° 0.1 mm 5 mps 738 mmHg 72%
    14:00 +23°C° 0.1 mm 5 mps 738 mmHg 71%
    15:00 +23°C° 0.2 mm 5 mps 738 mmHg 73%
    16:00 +23°C° 0.2 mm 5 mps 737 mmHg 75%
    17:00 +23°C° 0.2 mm 4 mps 737 mmHg 76%
    18:00 +22°C° 0.1 mm 4 mps 737 mmHg 80%
    19:00 +21°C° 0.1 mm 4 mps 737 mmHg 84%
    20:00 +21°C° 0.1 mm 3 mps 737 mmHg 87%
    21:00 +20°C° 0.1 mm 3 mps 737 mmHg 89%
    22:00 +20°C° 0.1 mm 4 mps 737 mmHg 92%
    23:00 +19°C° 0.1 mm 4 mps 737 mmHg 94%

    20 July, Friday

    Time Temperature Precipitation Wind Pressure Humidity
    00:00 +19°C° 0 mm 4 mps 737 mmHg 95%
    01:00 +18°C° 0 mm 4 mps 737 mmHg 96%
    02:00 +18°C° 0 mm 4 mps 737 mmHg 97%
    03:00 +18°C° 0 mm 4 mps 737 mmHg 96%
    04:00 +19°C° 0 mm 4 mps 737 mmHg 95%
    05:00 +19°C° 0 mm 4 mps 737 mmHg 94%
    06:00 +19°C° 0 mm 4 mps 737 mmHg 92%
    07:00 +20°C° 0 mm 4 mps 738 mmHg 90%
    08:00 +20°C° 0 mm 5 mps 738 mmHg 88%
    09:00 +21°C° 0.3 mm 5 mps 738 mmHg 85%
    10:00 +22°C° 0.3 mm 5 mps 738 mmHg 83%
    11:00 +23°C° 0.3 mm 5 mps 738 mmHg 80%
    12:00 +23°C° 0.8 mm 5 mps 738 mmHg 79%
    13:00 +25°C° 0.8 mm 5 mps 738 mmHg 79%
    14:00 +25°C° 0.8 mm 5 mps 738 mmHg 78%
    15:00 +25°C° 0.6 mm 5 mps 738 mmHg 78%
    16:00 +25°C° 0.6 mm 4 mps 737 mmHg 79%
    17:00 +25°C° 0.6 mm 4 mps 737 mmHg 79%
    18:00 +23°C° 0.8 mm 4 mps 737 mmHg 83%
    19:00 +22°C° 0.8 mm 3 mps 737 mmHg 86%
    20:00 +21°C° 0.8 mm 3 mps 737 mmHg 90%
    21:00 +21°C° 0.2 mm 3 mps 737 mmHg 92%
    22:00 +20°C° 0.2 mm 3 mps 737 mmHg 94%
    23:00 +19°C° 0.2 mm 3 mps 737 mmHg 96%

    21 July, Saturday

    Time Temperature Precipitation Wind Pressure Humidity
    00:00 +19°C° 0 mm 3 mps 737 mmHg 96%
    01:00 +19°C° 0 mm 3 mps 737 mmHg 97%
    02:00 +19°C° 0 mm 3 mps 737 mmHg 97%
    03:00 +19°C° 0 mm 3 mps 737 mmHg 97%
    04:00 +19°C° 0 mm 3 mps 737 mmHg 96%
    05:00 +19°C° 0 mm 3 mps 737 mmHg 95%
    06:00 +21°C° 0 mm 3 mps 737 mmHg 91%
    07:00 +22°C° 0 mm 4 mps 737 mmHg 86%
    08:00 +23°C° 0 mm 4 mps 737 mmHg 82%
    09:00 +25°C° 0.4 mm 4 mps 737 mmHg 79%
    10:00 +26°C° 0.4 mm 4 mps 737 mmHg 76%
    11:00 +27°C° 0.4 mm 4 mps 737 mmHg 74%
    12:00 +28°C° 0.7 mm 4 mps 737 mmHg 73%
    13:00 +28°C° 0.7 mm 4 mps 737 mmHg 73%
    14:00 +28°C° 0.7 mm 4 mps 737 mmHg 72%
    15:00 +27°C° 0.7 mm 4 mps 737 mmHg 76%
    16:00 +26°C° 0.7 mm 4 mps 737 mmHg 80%
    17:00 +25°C° 0.7 mm 4 mps 737 mmHg 83%
    18:00 +23°C° 0 mm 4 mps 737 mmHg 85%
    19:00 +24°C° 0 mm 3 mps 737 mmHg 87%
    20:00 +22°C° 0 mm 3 mps 736 mmHg 89%
    21:00 +21°C° 0.1 mm 3 mps 736 mmHg 90%
    22:00 +21°C° 0.1 mm 3 mps 736 mmHg 91%
    23:00 +20°C° 0.1 mm 3 mps 736 mmHg 92%

    22 July, Sunday

    Time Temperature Precipitation Wind Pressure Humidity
    00:00 +20°C° 0.4 mm 3 mps 736 mmHg 94%
    01:00 +20°C° 0.4 mm 3 mps 736 mmHg 95%
    02:00 +20°C° 0.4 mm 3 mps 736 mmHg 96%
    03:00 +20°C° 0 mm 3 mps 736 mmHg 96%
    04:00 +20°C° 0 mm 3 mps 736 mmHg 96%
    05:00 +20°C° 0 mm 4 mps 736 mmHg 96%
    06:00 +21°C° 0 mm 4 mps 736 mmHg 93%
    07:00 +22°C° 0 mm 4 mps 736 mmHg 90%
    08:00 +23°C° 0 mm 4 mps 736 mmHg 87%
    09:00 +23°C° 0.4 mm 4 mps 737 mmHg 86%
    10:00 +25°C° 0.4 mm 4 mps 737 mmHg 85%
    11:00 +25°C° 0.4 mm 4 mps 737 mmHg 84%
    12:00 +26°C° 0.7 mm 4 mps 737 mmHg 81%
    13:00 +27°C° 0.7 mm 4 mps 736 mmHg 78%
    14:00 +27°C° 0.7 mm 4 mps 736 mmHg 76%
    15:00 +27°C° 0.7 mm 4 mps 736 mmHg 78%
    16:00 +27°C° 0.7 mm 3 mps 736 mmHg 80%
    17:00 +26°C° 0.7 mm 3 mps 736 mmHg 82%
    18:00 +25°C° 0.9 mm 3 mps 736 mmHg 86%
    19:00 +24°C° 0.9 mm 3 mps 736 mmHg 89%
    20:00 +23°C° 0.9 mm 2 mps 736 mmHg 93%
    21:00 +21°C° 1.2 mm 2 mps 736 mmHg 94%
    22:00 +21°C° 1.2 mm 2 mps 736 mmHg 95%
    23:00 +21°C° 1.2 mm 2 mps 736 mmHg 96%
    Show more